TimeCDT,TemperatureF,Dew PointF,Humidity,Sea Level PressureIn,VisibilityMPH,Wind Direction,Wind SpeedMPH,Gust SpeedMPH,PrecipitationIn,Events,Conditions,WindDirDegrees,DateUTC
12:52 AM,46.9,32.0,56,30.12,-9999.0,North,6.9,-,N/A,,Unknown,350,2013-04-05 05:52:00
1:52 AM,44.1,33.1,65,30.13,-9999.0,North,4.6,-,N/A,,Unknown,350,2013-04-05 06:52:00
2:52 AM,45.0,34.0,65,30.14,-9999.0,North,4.6,-,N/A,,Unknown,350,2013-04-05 07:52:00
3:52 AM,41.0,33.1,73,30.15,-9999.0,North,4.6,-,N/A,,Unknown,360,2013-04-05 08:52:00
4:52 AM,43.0,33.1,68,30.16,-9999.0,North,4.6,-,N/A,,Unknown,10,2013-04-05 09:52:00
5:52 AM,39.9,32.0,73,30.16,-9999.0,North,5.8,-,N/A,,Unknown,10,2013-04-05 10:52:00
6:52 AM,37.9,32.0,79,30.18,-9999.0,North,6.9,-,N/A,,Unknown,10,2013-04-05 11:52:00
7:52 AM,41.0,33.1,73,30.20,-9999.0,NNE,4.6,-,N/A,,Unknown,30,2013-04-05 12:52:00
8:52 AM,45.0,34.0,65,30.22,-9999.0,ENE,6.9,-,N/A,,Unknown,60,2013-04-05 13:52:00
9:52 AM,48.9,33.1,54,30.22,-9999.0,East,10.4,-,N/A,,Unknown,90,2013-04-05 14:52:00
10:52 AM,53.1,34.0,48,30.21,-9999.0,SE,8.1,-,N/A,,Unknown,130,2013-04-05 15:52:00
11:52 AM,55.9,35.1,45,30.18,-9999.0,ESE,8.1,-,N/A,,Unknown,110,2013-04-05 16:52:00
12:52 PM,59.0,35.1,41,30.15,-9999.0,SSE,9.2,-,N/A,,Unknown,150,2013-04-05 17:52:00
1:52 PM,62.1,37.0,39,30.11,-9999.0,SSE,6.9,-,N/A,,Unknown,160,2013-04-05 18:52:00
2:52 PM,64.9,39.0,39,30.07,-9999.0,SSW,10.4,-,N/A,,Unknown,200,2013-04-05 19:52:00
3:52 PM,66.9,39.9,37,30.03,-9999.0,SSE,10.4,-,N/A,,Unknown,150,2013-04-05 20:52:00
4:52 PM,66.9,37.9,34,30.00,-9999.0,SSE,12.7,-,N/A,,Unknown,150,2013-04-05 21:52:00
5:52 PM,66.9,39.0,36,29.97,-9999.0,South,11.5,21.9,N/A,,Unknown,180,2013-04-05 22:52:00
6:52 PM,64.9,39.0,39,29.96,-9999.0,South,8.1,-,N/A,,Unknown,170,2013-04-05 23:52:00
7:52 PM,63.0,39.9,43,29.95,-9999.0,SSE,6.9,-,N/A,,Unknown,160,2013-04-06 00:52:00
8:52 PM,61.0,41.0,48,29.94,-9999.0,SSE,6.9,-,N/A,,Unknown,150,2013-04-06 01:52:00
9:52 PM,61.0,41.0,48,29.94,-9999.0,SSE,8.1,-,N/A,,Unknown,150,2013-04-06 02:52:00
10:52 PM,59.0,41.0,51,29.92,-9999.0,SSE,8.1,-,N/A,,Unknown,150,2013-04-06 03:52:00
11:52 PM,57.9,41.0,53,29.90,-9999.0,SSE,8.1,-,N/A,,Unknown,160,2013-04-06 04:52:00